STARLINK-32643, 62233

Orbit data source: Space-Track

STARLINK-32643, 62233 is a payload satellite owned by SpaceX/Seattle (US) in LEO that was launched on Thu, 05 Dec 2024 UTC via an FALCON 9 launch vehicle from the Air Force Western Test Range (AFWTR). Payload-class satellites include a variety of spacecraft equipped with specific instruments for various scientific and technological missions. These include communications satellites like Starlink; space stations such as the ISS; scientific satellites like the Hubble; Earth observation satellites from companies like Planet Labs, Umbra, and HawkEye 360; GPS; miniature CubeSats for education and research; and military/defense satellites.

Loading next visibility...
Identifier
62233, 2024-231R
Orbit
LEO
Last TLE update
12 hours ago
Origin
Manufacturer
SpaceX/Seattle
Mission
Operational Commercial Communications
Bus & Motor
STARLINK V2M, Unknown motor
Mass
730 kg wet, ~700 kg dry
Launch date (UTC)
2024-12-05 (7 months ago)
Launch vehicle
FALCON 9
Launch site
Air Force Western Test Range (AFWTR)
Object type
Payload
Rocket body
Debris
Shape & HBR
Box + 2 Pan, 29 m
Radar Cross Section
33.884 m², Large (>1 m²)

Expand to show TLE details & history

TLE from 12 hours ago
0 STARLINK-32643
1 62233U 24231R   25184.03489479  .00030168  00000-0  76064-3 0  9996
2 62233  53.1595 293.6793 0001420 101.2168 258.8996 15.39642279 33596
Epoch: 2025-07-03T00:50Z
TLE epoch observation values (Epoch: 2025-07-03T00:50:14.909Z)
Latitude
-0.00008°
Longitude
-0.19031°
Altitude
448.256 km
Speed
7.644 km/s
True Right ascension
19h 34m 43s
True Declination
0° 00' 00"
Sunlit
Object was in full shadow at epoch
Visualization orbit readout
Latitude
18.15811°
Longitude
163.39089°
Altitude
446.854 km
Speed
7.647 km/s
Apparent Right ascension
08h 51m 00s
Apparent Declination
-13° 05' 24"
Sunlit
Object is in daylight
Visualization observer readout
Local Sidereal Time
00:11:59
Azimuth
73.209° E
Elevation
-38.539°
Doppler factor
1
Orbital elements
Apogee altitude
448.393 km
Perigee altitude
446.455 km
Semi-major axis
6,825.561 km
Eccentricity
0.00014
Inclination
53.1595°
RAAN
293.6793°
Arg. of periapsis
101.2168°
True anomaly
Unknown
Mean anomaly
258.8996°
Eccentric anomaly
Unknown
Mean motion
3.84889 °/min
Orbital period
93.53 mins
BSTAR
0.00076064
Loading maneuver chart data...
Loading SW <> Apogee altitude chart data...
Loading historical data...
Loading historical data...
Loading historical data...
Loading historical data...
Loading historical data...
Loading historical data...
Loading historical data...

STARLINK-32643 Visibility forecast

Observer location: undefined°, undefined°

Span
Click to sort rows by Start time (UTC) header in descending order
Start Az.
Max El. time (UTC)
Max El. Az.
Max El.
End time (UTC)
End Az.
4 mins2025-07-03 15:18:20.072Z347.91° N2025-07-03 15:20:20.072Z27.615° NE16.101°2025-07-03 15:22:20.072Z63.284° ENE
5 mins2025-07-03 16:55:20.072Z311.277° NW2025-07-03 16:57:20.072Z318.202° NNW42.195°2025-07-03 17:00:20.072Z129.109° SE
5 mins2025-07-04 09:44:20.072Z222.746° SW2025-07-04 09:46:20.072Z198.612° SSW42.418°2025-07-04 09:49:20.072Z53.59° ENE
|